EW2719 Weather Reports


time (UTC)temp
C
wind
direction
speed
KPH
gust
KPH
rain 1hr
cm
rain 24hr
cm
rain mn
cm
humidity
%
barometer
mb
20260906051527 12 298 25.7 35.4 0.00 0.03 0.00 91 1018.3
20260906050023 12 292 24.1 33.8 0.00 0.03 0.00 90 1018.3
20260906044521 12 291 20.9 37.0 0.00 0.03 0.00 91 1018.1
20260906043015 12 288 20.9 29.0 0.00 0.03 0.00 91 1017.8
20260906041518 12 300 19.3 29.0 0.00 0.03 0.00 91 1017.7
20260906040011 12 294 19.3 33.8 0.00 0.03 0.00 91 1017.6
20260906034511 12 300 24.1 33.8 0.00 0.03 0.00 91 1017.5
20260906033009 12 293 22.5 33.8 0.00 0.03 0.00 91 1017.3
20260906031506 12 311 25.7 38.6 0.00 0.03 0.00 91 1017.0
20260906030005 12 292 19.3 32.2 0.00 0.05 0.00 90 1017.0
20260906024502 12 320 22.5 33.8 0.00 0.05 0.00 90 1016.7
20260906023003 12 285 24.1 33.8 0.00 0.05 0.00 90 1016.6
20260906021559 12 298 24.1 37.0 0.00 0.05 0.00 90 1016.4
20260906020058 12 303 22.5 33.8 0.00 0.05 0.00 90 1016.3
20260906014607 12 300 22.5 33.8 0.00 0.05 0.00 90 1016.2
20260906013053 12 291 20.9 40.2 0.00 0.05 0.00 89 1016.0
20260906011551 12 302 22.5 35.4 0.00 0.05 0.00 89 1015.9
20260906010048 12 302 22.5 40.2 0.00 0.05 0.00 89 1015.7
20260906004547 12 309 22.5 32.2 0.00 0.05 0.00 89 1015.6
20260906003045 12 287 25.7 37.0 0.00 0.05 0.00 89 1015.5
20260906001543 12 307 20.9 32.2 0.00 0.05 0.00 89 1015.4
20260906000042 12 273 24.1 37.0 0.00 0.05 0.00 89 1015.2
20260905234540 12 299 22.5 37.0 0.00 0.05 0.00 88 1015.0
20260905233040 12 288 25.7 37.0 0.00 0.05 0.00 88 1014.9
20260905231541 12 270 22.5 40.2 0.00 0.05 0.00 88 1014.6
20260905230036 12 302 24.1 35.4 0.00 0.05 0.00 88 1014.4
20260905224531 12 304 20.9 33.8 0.00 0.05 0.00 88 1014.3
20260905223028 12 292 20.9 35.4 0.00 0.05 0.00 88 1014.1
20260905221532 13 292 27.4 43.5 0.00 0.05 0.00 87 1014.0
20260905220022 13 317 25.7 46.7 0.00 0.05 0.00 87 1013.6
20260905214520 13 296 22.5 43.5 0.00 0.05 0.05 86 1013.3
20260905213018 13 299 27.4 40.2 0.00 0.05 0.05 85 1013.2
20260905211526 13 291 22.5 38.6 0.00 0.05 0.05 84 1013.1
20260905210014 13 292 20.9 48.3 0.00 0.05 0.05 84 1012.9
20260905204512 13 317 32.2 46.7 0.00 0.05 0.05 84 1012.6
20260905203016 13 306 25.7 46.7 0.00 0.05 0.05 83 1012.5
20260905201510 13 298 25.7 40.2 0.00 0.05 0.05 83 1012.4
20260905200013 13 298 30.6 48.3 0.00 0.05 0.05 83 1012.0
20260905194507 13 277 29.0 46.7 0.00 0.05 0.05 83 1011.8
20260905193006 13 297 25.7 45.1 0.00 0.05 0.05 83 1011.5
20260905191503 13 327 33.8 49.9 0.00 0.05 0.05 85 1011.3
20260905190001 13 286 30.6 41.8 0.00 0.10 0.05 86 1011.2
20260905184602 13 294 27.4 48.3 0.00 0.10 0.05 85 1011.2
20260905183059 13 309 29.0 43.5 0.00 0.10 0.05 85 1011.0
20260905181552 13 285 27.4 46.7 0.00 0.10 0.05 85 1010.5
20260905180051 13 309 24.1 56.3 0.00 0.10 0.05 83 1010.5
20260905174548 14 296 37.0 54.7 0.00 0.18 0.05 83 1010.3
20260905173046 14 302 30.6 45.1 0.00 0.18 0.05 85 1009.9
20260905171545 14 284 25.7 48.3 0.00 0.18 0.05 85 1009.9
20260905170041 14 280 25.7 43.5 0.00 0.18 0.05 83 1009.8
20260905164540 15 297 35.4 53.1 0.00 0.33 0.05 81 1009.7
20260905163038 15 296 32.2 54.7 0.00 0.33 0.05 79 1009.4
20260905161535 15 288 43.5 57.9 0.00 0.33 0.05 78 1009.0
20260905160034 16 298 41.8 59.5 0.00 0.33 0.05 75 1008.7
20260905154539 16 309 40.2 56.3 0.00 0.33 0.05 75 1008.5
20260905153032 16 288 37.0 54.7 0.00 0.33 0.05 75 1008.5
20260905151531 16 305 38.6 64.4 0.00 0.33 0.05 74 1008.3
20260905150035 16 296 38.6 57.9 0.00 0.33 0.05 75 1008.1
20260905144528 16 291 33.8 56.3 0.00 0.33 0.05 76 1008.1
20260905143026 16 294 30.6 45.1 0.00 0.33 0.05 77 1008.0
20260905141525 16 288 37.0 61.2 0.00 0.33 0.05 74 1007.9
20260905140023 17 301 32.2 46.7 0.00 0.33 0.05 76 1007.6
20260905134523 16 289 32.2 49.9 0.00 0.33 0.05 78 1007.4
20260905133020 17 292 25.7 46.7 0.00 0.33 0.05 79 1007.2
20260905131519 16 304 24.1 51.5 0.00 0.33 0.05 82 1007.4
20260905130018 17 271 35.4 57.9 0.00 0.33 0.05 76 1007.1
20260905124520 18 306 30.6 51.5 0.00 0.33 0.05 76 1006.9
20260905123013 17 279 29.0 54.7 0.00 0.33 0.05 77 1006.7
20260905121513 17 303 30.6 56.3 0.00 0.33 0.05 78 1006.7
20260905120018 16 327 32.2 46.7 0.00 0.43 0.05 80 1006.7
20260905114507 17 252 24.1 41.8 0.00 0.43 0.05 84 1006.6
20260905113005 16 284 22.5 41.8 0.00 0.43 0.05 86 1006.4
20260905111505 15 261 25.7 35.4 0.00 0.43 0.05 85 1006.4
20260905110001 16 292 27.4 37.0 0.00 0.46 0.05 83 1006.2
20260905104559 16 286 24.1 38.6 0.00 0.46 0.05 86 1006.0
20260905103102 16 277 19.3 35.4 0.00 0.46 0.05 87 1005.9
20260905101555 16 252 24.1 35.4 0.00 0.46 0.05 85 1005.8
20260905100057 16 257 20.9 32.2 0.00 0.46 0.05 86 1005.6
20260905094550 15 254 20.9 32.2 0.00 0.48 0.05 88 1005.7
20260905093054 15 271 17.7 33.8 0.00 0.48 0.05 87 1005.4
20260905091551 15 288 30.6 43.5 0.00 0.48 0.05 86 1005.4
20260905090048 15 254 17.7 33.8 0.00 0.48 0.05 87 1005.4
20260905084543 15 284 17.7 30.6 0.00 0.48 0.05 88 1005.2
20260905083041 15 272 14.5 30.6 0.00 0.48 0.05 89 1005.1
20260905081538 14 259 14.5 30.6 0.00 0.48 0.05 89 1004.9
20260905080043 14 299 19.3 32.2 0.03 0.48 0.05 89 1004.9
20260905074536 14 260 17.7 30.6 0.03 0.48 0.05 89 1004.7
20260905073035 14 253 9.7 22.5 0.03 0.48 0.05 92 1004.6
20260905071531 13 270 6.4 17.7 0.03 0.48 0.05 91 1004.6
20260905070034 13 286 9.7 20.9 0.00 0.46 0.05 92 1004.4
20260905064525 13 261 8.0 20.9 0.00 0.46 0.05 92 1004.2
20260905063023 12 281 8.0 24.1 0.00 0.46 0.05 93 1004.1
20260905061521 12 285 14.5 25.7 0.00 0.46 0.05 93 1004.0
20260905060020 12 265 12.9 20.9 0.00 0.46 0.05 93 1003.9
20260905054518 12 251 6.4 17.7 0.00 0.46 0.05 94 1003.7
20260905053017 12 209 6.4 17.7 0.00 0.46 0.05 94 1003.8